Total_Precipitation_Accumulation
0.00 0.00 0.00 0.00 0.00 0.00 0.00 0.00 0.05 0.10 0.31 0.81 0.90 0.86 0.66 0.16 0.10 0.04 0.01 0.00 0.00 0.00 0.00 0.00 0.00 0.00 0.00 0.00 0.00 0.00 0.00 0.02 0.00 0.00 0.00 0.01 0.05 0.01 0.01 0.04 0.08 0.09 0.07 0.04
0.00 0.00 0.00 0.00 0.00 0.00 0.00 0.01 0.03 0.03 0.11 0.13 0.52 0.73 0.87 0.40 0.10 0.02 0.01 0.02 0.00 0.00 0.00 0.00 0.00 0.00 0.00 0.00 0.00 0.00 0.00 0.04 0.03 0.00 0.02 0.01 0.00 0.01 0.02 0.04 0.06 0.05 0.10 0.06
0.00 0.00 0.00 0.00 0.00 0.01 0.06 0.02 0.01 0.02 0.01 0.00 0.06 0.45 0.75 0.46 0.21 0.02 0.01 0.02 0.00 0.00 0.00 0.00 0.00 0.00 0.00 0.00 0.00 0.00 0.00 0.03 0.08 0.02 0.01 0.04 0.07 0.13 0.05 0.02 0.03 0.06 0.04 0.07
0.00 0.00 0.00 0.00 0.00 0.01 0.05 0.01 0.00 0.03 0.04 0.02 0.01 0.17 0.47 0.53 0.27 0.06 0.01 0.00 0.00 0.00 0.00 0.00 0.00 0.00 0.00 0.00 0.00 0.00 0.00 0.03 0.04 0.00 0.03 0.15 0.08 0.03 0.10 0.14 0.13 0.07 0.03 0.03
0.00 0.00 0.00 0.00 0.00 0.00 0.00 0.04 0.07 0.04 0.03 0.02 0.01 0.01 0.15 0.52 0.34 0.06 0.01 0.00 0.00 0.00 0.00 0.00 0.00 0.00 0.00 0.00 0.00 0.00 0.00 0.07 0.03 0.01 0.11 0.06 0.04 0.04 0.04 0.07 0.06 0.06 0.06 0.01
0.00 0.00 0.00 0.00 0.00 0.00 0.00 0.02 0.05 0.06 0.06 0.02 0.00 0.00 0.01 0.19 0.22 0.05 0.02 0.00 0.00 0.00 0.00 0.00 0.00 0.00 0.00 0.00 0.00 0.00 0.00 0.00 0.00 0.03 0.07 0.07 0.06 0.07 0.08 0.12 0.05 0.06 0.02 0.00
0.00 0.00 0.00 0.00 0.00 0.01 0.00 0.01 0.04 0.05 0.03 0.00 0.00 0.01 0.00 0.01 0.09 0.07 0.04 0.02 0.00 0.00 0.01 0.00 0.00 0.00 0.00 0.00 0.00 0.00 0.00 0.00 0.00 0.04 0.05 0.06 0.04 0.04 0.09 0.11 0.11 0.12 0.08 0.04
0.00 0.00 0.00 0.00 0.00 0.00 0.01 0.01 0.01 0.00 0.01 0.03 0.02 0.01 0.00 0.00 0.00 0.03 0.02 0.02 0.01 0.01 0.01 0.01 0.00 0.00 0.00 0.00 0.00 0.00 0.00 0.00 0.00 0.00 0.00 0.02 0.05 0.06 0.05 0.08 0.16 0.12 0.09 0.07
0.00 0.00 0.00 0.00 0.00 0.00 0.02 0.01 0.02 0.03 0.03 0.04 0.01 0.00 0.00 0.00 0.00 0.00 0.02 0.02 0.01 0.01 0.02 0.00 0.00 0.00 0.00 0.00 0.00 0.00 0.00 0.00 0.00 0.00 0.00 0.00 0.01 0.04 0.01 0.01 0.17 0.15 0.20 0.09
0.00 0.00 0.00 0.00 0.00 0.00 0.00 0.04 0.07 0.05 0.07 0.02 0.00 0.00 0.00 0.00 0.00 0.00 0.01 0.02 0.00 0.01 0.00 0.00 0.00 0.00 0.00 0.00 0.00 0.00 0.00 0.00 0.00 0.00 0.00 0.00 0.00 0.02 0.09 0.01 0.09 0.18 0.16 0.08
0.00 0.00 0.00 0.00 0.00 0.00 0.00 0.02 0.05 0.04 0.02 0.02 0.01 0.00 0.00 0.00 0.00 0.00 0.00 0.00 0.00 0.00 0.01 0.01 0.01 0.01 0.02 0.01 0.00 0.00 0.00 0.00 0.00 0.00 0.00 0.00 0.00 0.00 0.04 0.05 0.13 0.19 0.10 0.01
0.00 0.00 0.00 0.00 0.00 0.00 0.00 0.00 0.00 0.02 0.00 0.00 0.00 0.01 0.00 0.00 0.00 0.00 0.00 0.00 0.00 0.01 0.01 0.01 0.03 0.02 0.02 0.00 0.02 0.02 0.02 0.01 0.06 0.09 0.14 0.16 0.12 0.08 0.02 0.05 0.06 0.10 0.09 0.09
0.00 0.00 0.00 0.00 0.00 0.00 0.00 0.00 0.00 0.00 0.01 0.04 0.00 0.00 0.00 0.00 0.00 0.00 0.00 0.00 0.00 0.00 0.01 0.04 0.01 0.02 0.04 0.05 0.08 0.05 0.04 0.10 0.21 0.16 0.20 0.27 0.21 0.20 0.25 0.18 0.09 0.07 0.04 0.02
0.00 0.00 0.00 0.00 0.01 0.00 0.00 0.00 0.00 0.00 0.00 0.00 0.00 0.00 0.00 0.00 0.00 0.00 0.00 0.00 0.00 0.00 0.01 0.05 0.03 0.03 0.10 0.13 0.13 0.06 0.12 0.11 0.11 0.12 0.09 0.25 0.28 0.18 0.15 0.22 0.17 0.18 0.22 0.22
0.00 0.00 0.00 0.00 0.01 0.01 0.02 0.00 0.00 0.00 0.00 0.00 0.00 0.00 0.00 0.00 0.00 0.00 0.00 0.00 0.00 0.02 0.00 0.05 0.05 0.02 0.06 0.13 0.12 0.14 0.18 0.20 0.19 0.20 0.18 0.24 0.29 0.31 0.22 0.21 0.26 0.19 0.20 0.22
0.00 0.00 0.00 0.01 0.01 0.00 0.01 0.01 0.00 0.02 0.01 0.00 0.00 0.00 0.01 0.02 0.00 0.00 0.00 0.00 0.01 0.03 0.01 0.06 0.18 0.17 0.11 0.16 0.19 0.27 0.22 0.23 0.15 0.19 0.43 0.56 0.50 0.40 0.26 0.21 0.24 0.19 0.13 0.10
0.00 0.01 0.01 0.01 0.01 0.01 0.02 0.00 0.00 0.00 0.01 0.01 0.01 0.00 0.04 0.10 0.12 0.09 0.09 0.12 0.13 0.10 0.06 0.06 0.10 0.12 0.24 0.30 0.33 0.36 0.27 0.14 0.18 0.30 0.37 0.38 0.47 0.32 0.29 0.20 0.20 0.25 0.20 0.16
0.00 0.00 0.02 0.02 0.05 0.07 0.02 0.01 0.00 0.00 0.00 0.00 0.00 0.08 0.17 0.13 0.12 0.07 0.06 0.12 0.27 0.26 0.26 0.23 0.14 0.17 0.33 0.42 0.33 0.29 0.52 0.49 0.31 0.45 0.57 0.43 0.40 0.38 0.32 0.21 0.12 0.10 0.09 0.10
0.00 0.00 0.01 0.05 0.09 0.03 0.01 0.00 0.00 0.00 0.00 0.00 0.01 0.10 0.14 0.21 0.25 0.22 0.29 0.26 0.17 0.15 0.27 0.37 0.38 0.23 0.25 0.63 0.52 0.41 0.39 1.06 1.30 0.59 0.48 0.34 0.29 0.32 0.37 0.35 0.37 0.33 0.18 0.14
0.00 0.00 0.01 0.03 0.07 0.03 0.01 0.00 0.00 0.00 0.01 0.01 0.01 0.15 0.28 0.27 0.30 0.12 0.15 0.14 0.11 0.08 0.15 0.23 0.13 0.18 0.28 0.59 0.51 0.48 0.41 0.49 0.93 1.02 0.66 0.61 0.67 0.56 0.61 0.93 0.86 0.76 0.57 0.31
0.00 0.00 0.01 0.02 0.04 0.00 0.00 0.00 0.00 0.02 0.01 0.01 0.01 0.19 0.29 0.27 0.25 0.12 0.11 0.05 0.01 0.00 0.00 0.02 0.03 0.06 0.14 0.38 0.36 0.31 0.39 0.54 0.73 1.02 1.10 0.77 0.81 1.02 0.90 0.77 0.89 0.96 0.86 0.78
0.01 0.01 0.02 0.01 0.03 0.01 0.00 0.00 0.02 0.01 0.00 0.02 0.05 0.21 0.41 0.34 0.12 0.13 0.05 0.01 0.00 0.00 0.00 0.00 0.00 0.03 0.07 0.14 0.27 0.17 0.29 0.35 0.50 1.03 1.18 1.70 1.32 1.27 1.28 1.29 1.25 1.13 1.09 1.06
0.01 0.01 0.03 0.02 0.01 0.01 0.01 0.00 0.01 0.03 0.04 0.03 0.03 0.14 0.18 0.20 0.13 0.08 0.07 0.03 0.00 0.00 0.00 0.00 0.00 0.00 0.02 0.08 0.11 0.12 0.15 0.23 0.26 0.42 0.60 0.84 1.30 0.95 0.93 0.84 0.78 0.69 0.55 0.41
0.00 0.00 0.00 0.00 0.00 0.04 0.07 0.07 0.04 0.02 0.00 0.00 0.02 0.02 0.01 0.03 0.02 0.02 0.00 0.00 0.00 0.00 0.00 0.00 0.00 0.00 0.00 0.00 0.02 0.07 0.06 0.03 0.03 0.05 0.04 0.09 0.20 0.17 0.21 0.21 0.26 0.38 0.44 0.48
0.00 0.00 0.00 0.00 0.00 0.04 0.06 0.08 0.02 0.00 0.00 0.00 0.00 0.00 0.00 0.00 0.00 0.00 0.00 0.00 0.00 0.00 0.00 0.00 0.00 0.00 0.00 0.00 0.00 0.00 0.00 0.00 0.00 0.00 0.00 0.00 0.00 0.02 0.06 0.07 0.12 0.14 0.16 0.20
0.00 0.00 0.00 0.00 0.00 0.01 0.00 0.00 0.00 0.00 0.00 0.00 0.00 0.00 0.03 0.05 0.01 0.00 0.00 0.00 0.00 0.00 0.00 0.00 0.00 0.00 0.00 0.00 0.00 0.00 0.00 0.00 0.00 0.00 0.00 0.00 0.00 0.00 0.00 0.00 0.00 0.01 0.03 0.03